| time (UTC) | temp F | wind direction | speed knots | gust knots | rain 1hr in | rain 24hr in | rain mn in | humidity % | barometer mb |
| 20260904225124 | 58 | 300 | 7.8 | 17.4 | 0.00 | 0.13 | 0.00 | 58 | 1011.1 |
| 20260904224224 | 58 | 293 | 8.7 | 17.4 | 0.00 | 0.13 | 0.00 | 57 | 1011.2 |
| 20260904223324 | 58 | 295 | 8.7 | 14.8 | 0.00 | 0.13 | 0.00 | 58 | 1011.1 |
| 20260904222424 | 58 | 291 | 7.8 | 16.5 | 0.00 | 0.13 | 0.00 | 59 | 1011.1 |
| 20260904221524 | 57 | 296 | 7.0 | 13.0 | 0.00 | 0.13 | 0.00 | 59 | 1011.0 |
| 20260904220624 | 56 | 292 | 7.8 | 17.4 | 0.00 | 0.13 | 0.00 | 59 | 1010.8 |
| 20260904215724 | 57 | 291 | 7.8 | 14.8 | 0.00 | 0.13 | 0.00 | 59 | 1010.7 |
| 20260904214824 | 57 | 291 | 7.8 | 14.8 | 0.00 | 0.13 | 0.00 | 60 | 1010.7 |
| 20260904213025 | 56 | 296 | 7.0 | 13.9 | 0.00 | 0.13 | 0.00 | 59 | 1010.6 |
| 20260904212124 | 56 | 290 | 8.7 | 14.8 | 0.00 | 0.13 | 0.00 | 59 | 1010.5 |
| 20260904211225 | 56 | 286 | 7.8 | 13.0 | 0.00 | 0.13 | 0.00 | 58 | 1010.5 |
| 20260904210324 | 57 | 288 | 7.8 | 13.0 | 0.00 | 0.13 | 0.00 | 58 | 1010.5 |
| 20260904204524 | 57 | 283 | 8.7 | 16.5 | 0.00 | 0.13 | 0.00 | 58 | 1010.2 |
| 20260904203624 | 57 | 279 | 10.4 | 22.6 | 0.00 | 0.13 | 0.00 | 59 | 1010.1 |
| 20260904202724 | 57 | 279 | 9.6 | 16.5 | 0.00 | 0.13 | 0.00 | 59 | 1010.0 |
| 20260904201824 | 58 | 278 | 11.3 | 20.0 | 0.00 | 0.13 | 0.00 | 60 | 1009.9 |
| 20260904200925 | 58 | 278 | 10.4 | 22.6 | 0.00 | 0.13 | 0.00 | 60 | 1009.7 |
| 20260904200024 | 58 | 277 | 10.4 | 20.0 | 0.00 | 0.13 | 0.00 | 61 | 1009.7 |
| 20260904195124 | 58 | 283 | 10.4 | 19.1 | 0.00 | 0.13 | 0.00 | 61 | 1009.5 |
| 20260904194224 | 58 | 288 | 9.6 | 17.4 | 0.00 | 0.13 | 0.00 | 61 | 1009.5 |
| 20260904193326 | 58 | 297 | 9.6 | 17.4 | 0.00 | 0.13 | 0.00 | 61 | 1009.5 |
| 20260904192424 | 59 | 305 | 8.7 | 16.5 | 0.00 | 0.13 | 0.00 | 62 | 1009.2 |
| 20260904191524 | 59 | 309 | 5.2 | 11.3 | 0.00 | 0.13 | 0.00 | 62 | 1009.0 |
| 20260904190624 | 59 | 325 | 5.2 | 9.6 | 0.00 | 0.13 | 0.00 | 62 | 1009.0 |
| 20260904185724 | 59 | 330 | 4.3 | 10.4 | 0.00 | 0.13 | 0.00 | 61 | 1008.8 |
| 20260904183024 | 60 | 322 | 5.2 | 9.6 | 0.00 | 0.13 | 0.00 | 61 | 1008.6 |
| 20260904182123 | 60 | 315 | 4.3 | 8.7 | 0.00 | 0.13 | 0.00 | 61 | 1008.6 |
| 20260904181223 | 60 | 318 | 4.3 | 9.6 | 0.00 | 0.13 | 0.00 | 61 | 1008.5 |
| 20260904180324 | 60 | 320 | 4.3 | 11.3 | 0.00 | 0.13 | 0.00 | 61 | 1008.5 |
| 20260904175423 | 60 | 322 | 5.2 | 9.6 | 0.00 | 0.13 | 0.00 | 61 | 1008.3 |
| 20260904174523 | 60 | 325 | 4.3 | 9.6 | 0.00 | 0.13 | 0.00 | 61 | 1008.5 |
| 20260904173623 | 60 | 331 | 5.2 | 9.6 | 0.00 | 0.13 | 0.00 | 60 | 1008.5 |
| 20260904172723 | 60 | 329 | 3.5 | 9.6 | 0.00 | 0.13 | 0.00 | 60 | 1008.4 |
| 20260904171823 | 60 | 336 | 3.5 | 7.0 | 0.00 | 0.13 | 0.00 | 60 | 1008.4 |
| 20260904170023 | 60 | 346 | 2.6 | 7.8 | 0.00 | 0.13 | 0.00 | 59 | 1008.3 |
| 20260904165124 | 60 | 339 | 2.6 | 4.3 | 0.00 | 0.13 | 0.00 | 59 | 1008.5 |
| 20260904164223 | 60 | 347 | 3.5 | 7.8 | 0.00 | 0.13 | 0.00 | 59 | 1008.7 |
| 20260904161523 | 61 | 11 | 3.5 | 7.8 | 0.00 | 0.13 | 0.00 | 58 | 1008.6 |
| 20260904155723 | 61 | 358 | 1.7 | 4.3 | 0.00 | 0.13 | 0.00 | 58 | 1008.5 |
| 20260904154823 | 61 | 335 | 1.7 | 3.5 | 0.00 | 0.13 | 0.00 | 58 | 1008.3 |
| 20260904153923 | 61 | 333 | 2.6 | 5.2 | 0.00 | 0.13 | 0.00 | 57 | 1008.3 |
| 20260904153023 | 61 | 342 | 2.6 | 7.0 | 0.00 | 0.13 | 0.00 | 57 | 1008.1 |
| 20260904152123 | 61 | 339 | 2.6 | 5.2 | 0.00 | 0.13 | 0.00 | 57 | 1008.5 |
| 20260904150323 | 62 | 323 | 2.6 | 7.0 | 0.00 | 0.13 | 0.00 | 57 | 1008.6 |
| 20260904145424 | 61 | 319 | 3.5 | 7.0 | 0.00 | 0.13 | 0.00 | 57 | 1008.3 |
| 20260904144523 | 61 | 318 | 4.3 | 11.3 | 0.00 | 0.13 | 0.00 | 57 | 1008.3 |
| 20260904142723 | 61 | 14 | 5.2 | 9.6 | 0.00 | 0.13 | 0.13 | 57 | 1007.9 |
| 20260904141823 | 62 | 11 | 4.3 | 8.7 | 0.00 | 0.13 | 0.13 | 57 | 1007.9 |
| 20260904140923 | 62 | 5 | 5.2 | 11.3 | 0.00 | 0.13 | 0.13 | 57 | 1008.2 |
| 20260904140023 | 62 | 2 | 4.3 | 9.6 | 0.00 | 0.13 | 0.13 | 57 | 1008.3 |
| 20260904135123 | 62 | 357 | 4.3 | 9.6 | 0.00 | 0.13 | 0.13 | 57 | 1008.3 |
| 20260904134223 | 62 | 343 | 3.5 | 8.7 | 0.00 | 0.13 | 0.13 | 57 | 1008.3 |
| 20260904133323 | 62 | 347 | 4.3 | 8.7 | 0.00 | 0.13 | 0.13 | 57 | 1008.4 |
| 20260904131523 | 62 | 3 | 5.2 | 10.4 | 0.00 | 0.13 | 0.13 | 57 | 1008.2 |
| 20260904130623 | 62 | 5 | 6.1 | 11.3 | 0.00 | 0.13 | 0.13 | 56 | 1008.1 |
| 20260904125724 | 62 | 13 | 5.2 | 8.7 | 0.00 | 0.13 | 0.13 | 56 | 1008.0 |
| 20260904124823 | 63 | 24 | 6.1 | 11.3 | 0.00 | 0.13 | 0.13 | 56 | 1007.9 |
| 20260904123023 | 63 | 15 | 6.1 | 10.4 | 0.00 | 0.13 | 0.13 | 56 | 1008.3 |
| 20260904122123 | 63 | 13 | 7.0 | 13.0 | 0.00 | 0.13 | 0.13 | 55 | 1008.6 |
| 20260904121223 | 63 | 13 | 7.0 | 13.0 | 0.00 | 0.13 | 0.13 | 55 | 1008.5 |
| 20260904120323 | 64 | 19 | 7.0 | 13.9 | 0.00 | 0.13 | 0.13 | 55 | 1008.4 |
| 20260904115423 | 64 | 11 | 6.1 | 13.9 | 0.00 | 0.13 | 0.13 | 55 | 1008.7 |
| 20260904114523 | 64 | 5 | 7.0 | 13.0 | 0.00 | 0.13 | 0.13 | 55 | 1008.6 |
| 20260904113625 | 64 | 357 | 7.0 | 13.9 | 0.00 | 0.13 | 0.13 | 55 | 1008.9 |
| 20260904111823 | 64 | 357 | 7.0 | 12.2 | 0.00 | 0.13 | 0.13 | 55 | 1008.8 |
| 20260904110923 | 64 | 359 | 7.0 | 13.0 | 0.00 | 0.13 | 0.13 | 55 | 1009.0 |
| 20260904100622 | 65 | 7 | 7.0 | 13.0 | 0.00 | 0.13 | 0.13 | 56 | 1008.9 |
| 20260904095722 | 65 | 3 | 6.1 | 10.4 | 0.00 | 0.13 | 0.13 | 57 | 1008.9 |
| 20260904094822 | 65 | 5 | 5.2 | 12.2 | 0.00 | 0.13 | 0.13 | 57 | 1008.8 |
| 20260904093922 | 65 | 19 | 6.1 | 13.0 | 0.00 | 0.13 | 0.13 | 58 | 1008.7 |
| 20260904093025 | 65 | 16 | 4.3 | 9.6 | 0.00 | 0.13 | 0.13 | 58 | 1008.5 |
| 20260904092122 | 65 | 20 | 5.2 | 9.6 | 0.00 | 0.13 | 0.13 | 58 | 1008.4 |
| 20260904091222 | 65 | 20 | 7.0 | 13.0 | 0.00 | 0.13 | 0.13 | 58 | 1008.3 |
| 20260904085422 | 65 | 30 | 6.1 | 10.4 | 0.00 | 0.13 | 0.13 | 58 | 1008.4 |
| 20260904084522 | 65 | 38 | 4.3 | 8.7 | 0.00 | 0.13 | 0.13 | 58 | 1008.5 |
| 20260904082722 | 66 | 73 | 3.5 | 7.0 | 0.00 | 0.13 | 0.13 | 59 | 1008.5 |
| 20260904081822 | 66 | 76 | 2.6 | 6.1 | 0.00 | 0.13 | 0.13 | 58 | 1008.4 |
| 20260904080922 | 66 | 79 | 3.5 | 7.0 | 0.00 | 0.13 | 0.13 | 58 | 1008.5 |
| 20260904080022 | 66 | 72 | 3.5 | 7.8 | 0.00 | 0.13 | 0.13 | 57 | 1008.5 |
| 20260904075122 | 67 | 49 | 4.3 | 7.8 | 0.00 | 0.13 | 0.13 | 57 | 1008.4 |
| 20260904074222 | 67 | 46 | 4.3 | 7.8 | 0.00 | 0.13 | 0.13 | 57 | 1008.6 |
| 20260904071522 | 67 | 45 | 5.2 | 10.4 | 0.00 | 0.13 | 0.13 | 56 | 1008.8 |
| 20260904070622 | 68 | 49 | 4.3 | 9.6 | 0.00 | 0.13 | 0.13 | 56 | 1008.8 |
| 20260904065722 | 68 | 40 | 6.1 | 11.3 | 0.00 | 0.13 | 0.13 | 55 | 1009.0 |
| 20260904064822 | 68 | 23 | 4.3 | 10.4 | 0.00 | 0.13 | 0.13 | 56 | 1009.0 |
| 20260904063922 | 67 | 2 | 5.2 | 13.0 | 0.00 | 0.13 | 0.13 | 55 | 1009.0 |
| 20260904063022 | 68 | 8 | 5.2 | 13.0 | 0.00 | 0.13 | 0.13 | 53 | 1009.1 |
| 20260904060322 | 68 | 34 | 7.0 | 12.2 | 0.00 | 0.14 | 0.13 | 52 | 1009.3 |
| 20260904055422 | 68 | 29 | 7.8 | 13.0 | 0.00 | 0.14 | 0.13 | 52 | 1009.4 |
| 20260904054522 | 68 | 36 | 7.8 | 13.9 | 0.00 | 0.14 | 0.13 | 52 | 1009.3 |
| 20260904052722 | 68 | 51 | 6.1 | 11.3 | 0.00 | 0.14 | 0.13 | 53 | 1009.5 |
| 20260904051822 | 67 | 32 | 5.2 | 10.4 | 0.00 | 0.14 | 0.13 | 54 | 1009.8 |
| 20260904050922 | 66 | 39 | 6.1 | 11.3 | 0.00 | 0.14 | 0.13 | 54 | 1010.1 |
| 20260904045122 | 65 | 54 | 4.3 | 10.4 | 0.00 | 0.14 | 0.13 | 56 | 1010.2 |
| 20260904044222 | 64 | 59 | 4.3 | 8.7 | 0.00 | 0.14 | 0.13 | 57 | 1010.3 |
| 20260904043322 | 64 | 61 | 3.5 | 7.8 | 0.00 | 0.14 | 0.13 | 57 | 1010.5 |
| 20260904042422 | 64 | 71 | 3.5 | 9.6 | 0.00 | 0.14 | 0.13 | 57 | 1010.6 |
| 20260904041522 | 64 | 57 | 3.5 | 9.6 | 0.00 | 0.14 | 0.13 | 56 | 1010.6 |
| 20260904040622 | 63 | 49 | 4.3 | 8.7 | 0.00 | 0.14 | 0.13 | 56 | 1010.9 |
| 20260904035722 | 63 | 39 | 7.0 | 11.3 | 0.00 | 0.14 | 0.13 | 56 | 1011.1 |
| 20260904034822 | 64 | 32 | 7.0 | 12.2 | 0.00 | 0.14 | 0.13 | 55 | 1011.3 |
| 20260904033022 | 64 | 32 | 7.0 | 13.9 | 0.01 | 0.14 | 0.13 | 56 | 1011.6 |
| 20260904032121 | 65 | 35 | 6.1 | 12.2 | 0.04 | 0.14 | 0.13 | 57 | 1011.9 |
| 20260904031221 | 63 | 42 | 7.0 | 13.0 | 0.06 | 0.14 | 0.13 | 59 | 1012.1 |
| 20260904030322 | 62 | 66 | 4.3 | 8.7 | 0.08 | 0.14 | 0.13 | 65 | 1012.4 |
| 20260904023621 | 57 | 82 | 5.2 | 11.3 | 0.12 | 0.13 | 0.13 | 64 | 1013.1 |
| 20260904022722 | 57 | 50 | 7.0 | 12.2 | 0.11 | 0.13 | 0.12 | 64 | 1013.7 |
| 20260904021822 | 57 | 65 | 5.2 | 12.2 | 0.09 | 0.09 | 0.09 | 64 | 1014.2 |
| 20260904020021 | 58 | 25 | 5.2 | 10.4 | 0.05 | 0.06 | 0.05 | 64 | 1015.5 |
| 20260904015121 | 57 | 44 | 5.2 | 11.3 | 0.04 | 0.05 | 0.04 | 62 | 1014.1 |
| 20260904014221 | 58 | 37 | 7.8 | 13.0 | 0.02 | 0.03 | 0.02 | 61 | 1014.6 |